Time,TemperatureF,DewpointF,PressureIn,WindDirection,WindDirectionDegrees,WindSpeedMPH,WindSpeedGustMPH,Humidity,HourlyPrecipIn,Conditions,Clouds,dailyrainin,SoftwareType,DateUTC
2013-11-13 00:22:00,50.0,49.0,30.32,SW,229,12.0,-999.0,96,-99.99,,,-99.99,,2013-11-13 08:22:00,
2013-11-13 00:42:00,50.0,49.0,30.32,WSW,238,9.0,-999.0,96,-99.99,,,-99.99,,2013-11-13 08:42:00,
2013-11-13 00:52:00,50.0,49.0,30.32,SW,225,8.0,-999.0,96,-99.99,,,-99.99,,2013-11-13 08:52:00,
2013-11-13 01:11:00,50.0,49.0,30.32,SW,231,9.0,-999.0,96,-99.99,,,-99.99,,2013-11-13 09:11:00,
2013-11-13 01:21:00,50.0,49.0,30.32,SW,230,10.0,-999.0,96,-99.99,,,-99.99,,2013-11-13 09:21:00,
2013-11-13 01:43:00,50.0,49.0,30.32,WSW,237,12.0,-999.0,96,-99.99,,,-99.99,,2013-11-13 09:43:00,
2013-11-13 01:52:00,50.0,49.0,30.32,SSW,208,11.0,-999.0,96,-99.99,,,-99.99,,2013-11-13 09:52:00,
2013-11-13 02:13:00,50.0,49.0,30.33,SW,221,7.0,-999.0,96,-99.99,,,-99.99,,2013-11-13 10:13:00,
2013-11-13 02:23:00,50.0,49.0,30.33,SW,233,7.0,-999.0,96,-99.99,,,-99.99,,2013-11-13 10:23:00,
2013-11-13 02:42:00,50.0,49.0,30.32,SW,222,9.0,-999.0,96,-99.99,,,-99.99,,2013-11-13 10:42:00,
2013-11-13 02:52:00,50.0,49.0,30.32,WSW,238,9.0,-999.0,96,-99.99,,,-99.99,,2013-11-13 10:52:00,
2013-11-13 03:22:00,50.0,49.0,30.32,SW,217,10.0,-999.0,96,-99.99,,,-99.99,,2013-11-13 11:22:00,
2013-11-13 03:42:00,50.0,49.0,30.32,SW,219,9.0,-999.0,96,-99.99,,,-99.99,,2013-11-13 11:42:00,
2013-11-13 03:52:00,50.0,49.0,30.32,WSW,246,11.0,-999.0,96,-99.99,,,-99.99,,2013-11-13 11:52:00,
2013-11-13 04:22:00,50.0,49.0,30.32,WSW,252,8.0,-999.0,96,-99.99,,,-99.99,,2013-11-13 12:22:00,
2013-11-13 04:41:00,50.0,49.0,30.33,SW,235,10.0,-999.0,96,-99.99,,,-99.99,,2013-11-13 12:41:00,
2013-11-13 04:52:00,50.0,49.0,30.33,SW,221,6.0,-999.0,96,-99.99,,,-99.99,,2013-11-13 12:52:00,
2013-11-13 05:11:00,50.0,49.0,30.32,SW,236,9.0,-999.0,96,-99.99,,,-99.99,,2013-11-13 13:11:00,
2013-11-13 05:21:00,50.0,49.0,30.32,SSW,209,10.0,-999.0,96,-99.99,,,-99.99,,2013-11-13 13:21:00,
2013-11-13 05:42:00,50.0,49.0,30.33,SW,221,10.0,-999.0,96,-99.99,,,-99.99,,2013-11-13 13:42:00,
2013-11-13 05:52:00,49.0,48.0,30.34,SW,222,5.0,-999.0,96,-99.99,,,-99.99,,2013-11-13 13:52:00,
2013-11-13 06:11:00,49.0,48.0,30.35,SW,224,3.0,-999.0,96,-99.99,,,-99.99,,2013-11-13 14:11:00,
2013-11-13 06:22:00,49.0,48.0,30.35,SW,235,4.0,-999.0,96,-99.99,,,-99.99,,2013-11-13 14:22:00,
2013-11-13 06:42:00,49.0,48.0,30.35,SW,229,6.0,-999.0,96,-99.99,,,-99.99,,2013-11-13 14:42:00,
2013-11-13 06:52:00,49.0,48.0,30.34,WSW,238,7.0,-999.0,96,-99.99,,,-99.99,,2013-11-13 14:52:00,
2013-11-13 07:11:00,49.0,48.0,30.35,SW,226,8.0,-999.0,97,-99.99,,,-99.99,,2013-11-13 15:11:00,
2013-11-13 07:21:00,49.0,48.0,30.35,WSW,241,3.0,-999.0,96,-99.99,,,-99.99,,2013-11-13 15:21:00,
2013-11-13 07:43:00,48.0,47.0,30.36,WSW,239,1.0,-999.0,97,-99.99,,,-99.99,,2013-11-13 15:43:00,
2013-11-13 07:53:00,48.0,47.0,30.36,WSW,238,0.0,-999.0,97,-99.99,,,-99.99,,2013-11-13 15:53:00,
2013-11-13 08:22:00,48.0,47.0,30.37,SW,236,1.0,-999.0,97,-99.99,,,-99.99,,2013-11-13 16:22:00,
2013-11-13 08:42:00,48.0,47.0,30.37,SW,231,3.0,-999.0,97,-99.99,,,-99.99,,2013-11-13 16:42:00,
2013-11-13 08:53:00,49.0,48.0,30.36,SW,236,2.0,-999.0,97,-99.99,,,-99.99,,2013-11-13 16:53:00,
2013-11-13 09:12:00,49.0,48.0,30.37,WSW,240,4.0,-999.0,96,-99.99,,,-99.99,,2013-11-13 17:12:00,
2013-11-13 09:22:00,49.0,48.0,30.37,SW,235,4.0,-999.0,95,-99.99,,,-99.99,,2013-11-13 17:22:00,
2013-11-13 09:52:00,50.0,49.0,30.38,SW,232,2.0,-999.0,95,-99.99,,,-99.99,,2013-11-13 17:52:00,
2013-11-13 10:12:00,50.0,48.0,30.38,SW,236,4.0,-999.0,93,-99.99,,,-99.99,,2013-11-13 18:12:00,
2013-11-13 10:23:00,50.0,48.0,30.38,SW,236,4.0,-999.0,93,-99.99,,,-99.99,,2013-11-13 18:23:00,
2013-11-13 10:42:00,49.0,47.0,30.38,WSW,238,3.0,-999.0,94,-99.99,,,-99.99,,2013-11-13 18:42:00,
2013-11-13 10:52:00,50.0,48.0,30.38,SW,232,4.0,-999.0,93,-99.99,,,-99.99,,2013-11-13 18:52:00,
2013-11-13 11:11:00,50.0,48.0,30.38,SW,233,1.0,-999.0,93,-99.99,,,-99.99,,2013-11-13 19:11:00,
2013-11-13 11:21:00,50.0,48.0,30.38,SW,233,2.0,-999.0,93,-99.99,,,-99.99,,2013-11-13 19:21:00,
2013-11-13 11:42:00,51.0,49.0,30.38,SW,229,5.0,-999.0,92,-99.99,,,-99.99,,2013-11-13 19:42:00,
2013-11-13 11:52:00,51.0,49.0,30.37,SW,235,3.0,-999.0,92,-99.99,,,-99.99,,2013-11-13 19:52:00,
2013-11-13 12:21:00,52.0,49.0,30.38,WSW,242,2.0,-999.0,91,-99.99,,,-99.99,,2013-11-13 20:21:00,
2013-11-13 12:42:00,52.0,49.0,30.38,WSW,245,4.0,-999.0,89,-99.99,,,-99.99,,2013-11-13 20:42:00,
2013-11-13 12:52:00,52.0,49.0,30.37,WSW,247,4.0,-999.0,89,-99.99,,,-99.99,,2013-11-13 20:52:00,
2013-11-13 13:11:00,53.0,49.0,30.37,SW,234,2.0,-999.0,86,-99.99,,,-99.99,,2013-11-13 21:11:00,
2013-11-13 13:21:00,54.0,50.0,30.37,SW,217,3.0,-999.0,85,-99.99,,,-99.99,,2013-11-13 21:21:00,
2013-11-13 13:43:00,54.0,50.0,30.36,WSW,237,1.0,-999.0,86,-99.99,,,-99.99,,2013-11-13 21:43:00,
2013-11-13 13:53:00,55.0,50.0,30.36,SW,236,0.0,-999.0,83,-99.99,,,-99.99,,2013-11-13 21:53:00,
2013-11-13 14:23:00,53.0,48.0,30.36,WNW,294,1.0,-999.0,84,-99.99,,,-99.99,,2013-11-13 22:23:00,
2013-11-13 14:42:00,53.0,48.0,30.36,WNW,294,0.0,-999.0,84,-99.99,,,-99.99,,2013-11-13 22:42:00,
2013-11-13 14:53:00,54.0,49.0,30.36,WNW,294,0.0,-999.0,84,-99.99,,,-99.99,,2013-11-13 22:53:00,
2013-11-13 15:22:00,54.0,49.0,30.35,WNW,294,0.0,-999.0,84,-99.99,,,-99.99,,2013-11-13 23:22:00,
2013-11-13 15:42:00,54.0,49.0,30.35,WNW,294,0.0,-999.0,84,-99.99,,,-99.99,,2013-11-13 23:42:00,
2013-11-13 15:52:00,53.0,49.0,30.35,WNW,294,0.0,-999.0,86,-99.99,,,-99.99,,2013-11-13 23:52:00,
2013-11-13 16:11:00,53.0,49.0,30.35,WNW,294,0.0,-999.0,86,-99.99,,,-99.99,,2013-11-14 00:11:00,
2013-11-13 16:22:00,53.0,49.0,30.35,WNW,294,0.0,-999.0,87,-99.99,,,-99.99,,2013-11-14 00:22:00,
2013-11-13 16:42:00,52.0,49.0,30.35,WNW,294,0.0,-999.0,88,-99.99,,,-99.99,,2013-11-14 00:42:00,
2013-11-13 16:52:00,52.0,49.0,30.35,WNW,294,0.0,-999.0,89,-99.99,,,-99.99,,2013-11-14 00:52:00,
2013-11-13 17:11:00,51.0,48.0,30.35,WNW,294,0.0,-999.0,90,-99.99,,,-99.99,,2013-11-14 01:11:00,
2013-11-13 17:21:00,51.0,48.0,30.35,WNW,294,0.0,-999.0,91,-99.99,,,-99.99,,2013-11-14 01:21:00,
2013-11-13 17:42:00,51.0,49.0,30.35,WNW,294,0.0,-999.0,92,-99.99,,,-99.99,,2013-11-14 01:42:00,
2013-11-13 17:52:00,51.0,49.0,30.34,WNW,294,0.0,-999.0,92,-99.99,,,-99.99,,2013-11-14 01:52:00,
2013-11-13 18:12:00,51.0,49.0,30.34,WNW,294,0.0,-999.0,92,-99.99,,,-99.99,,2013-11-14 02:12:00,
2013-11-13 18:21:00,50.0,48.0,30.34,WNW,294,0.0,-999.0,92,-99.99,,,-99.99,,2013-11-14 02:21:00,
2013-11-13 19:11:00,50.0,47.0,30.33,WSW,243,0.0,-999.0,91,-99.99,,,-99.99,,2013-11-14 03:11:00,
2013-11-13 19:21:00,50.0,47.0,30.32,WSW,243,0.0,-999.0,91,-99.99,,,-99.99,,2013-11-14 03:21:00,
2013-11-13 19:43:00,50.0,47.0,30.32,WSW,242,2.0,-999.0,91,-99.99,,,-99.99,,2013-11-14 03:43:00,
2013-11-13 19:54:00,50.0,48.0,30.32,WSW,242,1.0,-999.0,92,-99.99,,,-99.99,,2013-11-14 03:54:00,
2013-11-13 20:24:00,49.0,47.0,30.31,SW,233,2.0,-999.0,92,-99.99,,,-99.99,,2013-11-14 04:24:00,
2013-11-13 20:43:00,49.0,47.0,30.32,SW,232,5.0,-999.0,92,-99.99,,,-99.99,,2013-11-14 04:43:00,
2013-11-13 20:54:00,49.0,47.0,30.32,SW,232,1.0,-999.0,93,-99.99,,,-99.99,,2013-11-14 04:54:00,
2013-11-13 21:13:00,49.0,47.0,30.32,SW,232,2.0,-999.0,93,-99.99,,,-99.99,,2013-11-14 05:13:00,
2013-11-13 21:23:00,49.0,47.0,30.32,SW,232,3.0,-999.0,93,-99.99,,,-99.99,,2013-11-14 05:23:00,
2013-11-13 21:44:00,48.0,46.0,30.31,SW,232,1.0,-999.0,93,-99.99,,,-99.99,,2013-11-14 05:44:00,
2013-11-13 21:53:00,48.0,46.0,30.30,SW,232,1.0,-999.0,94,-99.99,,,-99.99,,2013-11-14 05:53:00,
2013-11-13 22:21:00,48.0,46.0,30.30,SW,232,0.0,-999.0,94,-99.99,,,-99.99,,2013-11-14 06:21:00,
2013-11-13 22:42:00,48.0,46.0,30.29,SW,232,1.0,-999.0,94,-99.99,,,-99.99,,2013-11-14 06:42:00,
2013-11-13 22:52:00,48.0,47.0,30.29,SW,232,0.0,-999.0,95,-99.99,,,-99.99,,2013-11-14 06:52:00,
2013-11-13 23:11:00,48.0,47.0,30.29,SW,232,0.0,-999.0,95,-99.99,,,-99.99,,2013-11-14 07:11:00,
2013-11-13 23:22:00,48.0,47.0,30.28,WSW,240,1.0,-999.0,95,-99.99,,,-99.99,,2013-11-14 07:22:00,
2013-11-13 23:42:00,48.0,47.0,30.28,WSW,240,0.0,-999.0,95,-99.99,,,-99.99,,2013-11-14 07:42:00,
2013-11-13 23:52:00,48.0,47.0,30.27,WSW,240,0.0,-999.0,96,-99.99,,,-99.99,,2013-11-14 07:52:00,